PICOSAT 4

Satellite information

Favourite Embed

Satellite Type and Status

PAYLOADIN ORBIT

Key statistics

Satellite PICOSAT 4 at a glance.

Uptime

9452

Days in orbit

Revolutions

≈ 14.5

Per day

Orbit

SSO

Sun Synchronous Orbit

Inclination

100.2

Latest

Satellite identification and parameters

Extended collection of information and parameters for PICOSAT 4.

Object identification

Identified? True

Debris? False

Object name: PICOSAT 4

International designator: 2000-004K

Object number (NORAD): 26092

Object ID (CCSDS): 26092

Country: UNITED STATES OF AMERICA (US)

Current information (Y/N): Y

RCS size: SMALL

Orbital parameters

Period: 99.418 minutes

Inclination: 100.2062 deg

SMA: 7108.94 km

Apoapsis: 753.061 km

Periapsis: 708.549 km

RAAN: 328.6338 deg

Eccentricy: 0.0031307

Argument of periapsis: 323.1045 deg

Mean anomaly: 36.7988 deg

Mean motion: 14.48423382 rev/day

Mean motion (dot): 0.00002073 rev/day2

B* drag term: 0.00056637 1/REarth

Two-line elements (TLE)

Creation date: Dec. 12, 2025, 7:16 a.m.

Reference frame: TEME

Reference center: EARTH

Epoch: Dec. 11, 2025, 9:43 p.m. UTC

TLE line 0: 0 PICOSAT 4

TLE line 1: 1 26092U 00004K 25345.90519720 .00002073 00000-0 56637-3 0 9997

TLE line 2: 2 26092 100.2062 328.6338 0031307 323.1045 36.7988 14.48423382359228

Live tracking on map

Real-time ground track for satellite PICOSAT 4.

In-orbit conjunctions

There are no conjunctions computed for PICOSAT 4, at the moment. Check back to stay up to date, as we update our databases every day.

Go to all conjunctions

Associated space launch

The JAWSAT (Joint Air Force Academy / Weber State University Satellite) project was developed by students working alongside aerospace professionals. Initially designed with a pulsed-plasma thruster to train Air Force Academy cadets (see JAWSAT), the mission has since evolved to include the efforts of several universities, local aerospace companies, the Air Force Academy, the Air Force Research Laboratory, and NASA. Utilizing breakthrough technologies, JAWSAT deployed four satellites when it reached orbit. The onboard imaging system recorded the deployment of each payload with its six digital cameras. The first free-flying Academy satellite, FalconSat-1 carried the CHAWS (Charging Hazards and Wake Studies) experiment developed by the Physics Department at the Academy.

PICOSAT 4 was lifted into orbit during the mission ‘Minotaur I | JAWSAT & FalconSat 1’, on board a Minotaur I space rocket.

The launch took place on Jan. 27, 2000, 3:03 a.m. from Space Launch Complex 8.

For more information about the launch, click the button.

Launch to space Minotaur I | JAWSAT & FalconSat 1
Minotaur I | JAWSAT & FalconSat 1

Agency: N/A

Status: Launch Successful

Launch date: Jan. 27, 2000, 3:03 a.m. UTC

Rocket: Minotaur I

Launch pad: Space Launch Complex 8

Location: Vandenberg SFB, CA, USA

...

Latest news about this satellite

There are no fresh news available about this satellite. Check back as we update our databases every day.


Newsletter sign-up

Weekly statistics, charts and insights to help you stay on top of the space industry.